Rolla, ND

5:55 AM CST on February 25, 2018 (GMT -0600)
Rolla

Weather History for K06D - May, 2014

Change the Weather History Date:

Friday, May 2, 2014

  Actual Average (KRUG) Record (KRUG)
Temperature  
Mean Temperature 47 °F -  
Max Temperature 55 °F 63 °F 88 °F (1955)
Min Temperature 39 °F 35 °F 14 °F (1967)
Degree Days  
Heating Degree Days 18    
Moisture  
Dew Point 37 °F    
Average Humidity 72    
Maximum Humidity 100    
Minimum Humidity 36    
Precipitation  
Precipitation 0.01 in - - ()
Sea Level Pressure  
Sea Level Pressure 29.75 in    
Wind  
Wind Speed 20 mph (NW)    
Max Wind Speed 32 mph    
Max Gust Speed 39 mph    
Visibility 10 miles    
Events Rain    
Averages and records for this station are not official NWS values.
T = Trace of Precipitation, MM = Missing Value Source: NWS Daily Summary

Daily Weather History Graph

Daily Weather History Graph

Search for Another Location

Airport or City:

Trip Planner

Search our weather history database for the weather conditions in past years. The results will help you decide how hot, cold, wet, or windy it might be!

Date:

Astronomy

May. 02, 2014 Rise Set
Actual Time 6:16 AM CDT 8:55 PM CDT
Civil Twilight 5:40 AM CDT 9:31 PM CDT
Nautical Twilight 4:55 AM CDT 10:17 PM CDT
Astronomical Twilight 4:01 AM CDT 11:11 PM CDT
Moon 8:49 AM CDT (5/2) No Moon Set
Length of Visible Light 15h 51m
Length of Day
14h 39m
Waxing Crescent, 12% of the Moon is Illuminated
May 2
Waxing Crescent
May 6
First Quarter
May 14
Full
May 21
Last Quarter
May 28
New

Hourly Weather History & Observations

Time (CDT) Temp. Windchill Dew Point Humidity Pressure Visibility Wind Dir Wind Speed Gust Speed Precip Events Conditions
12:15 AM 48.2 °F - 35.6 °F 62% 29.69 in 10.0 mi WSW 12.7 mph - N/A   Overcast
12:55 AM 48.2 °F - 35.6 °F 62% 29.68 in 10.0 mi WSW 15.0 mph - N/A   Overcast
1:15 AM 48.2 °F - 37.4 °F 66% 29.68 in 10.0 mi WNW 16.1 mph 20.7 mph N/A Rain Light Rain
1:35 AM 48.2 °F - 42.8 °F 82% 29.67 in 10.0 mi NNW 20.7 mph 32.2 mph N/A   Overcast
1:55 AM 46.4 °F 37.7 °F 44.6 °F 93% 29.68 in 10.0 mi NNW 26.5 mph 35.7 mph N/A   Mostly Cloudy
2:15 AM 44.6 °F 35.3 °F 42.8 °F 93% 29.68 in 10.0 mi NNW 26.5 mph 38.0 mph N/A   Scattered Clouds
2:35 AM 44.6 °F 35.3 °F 42.8 °F 93% 29.68 in 10.0 mi NNW 26.5 mph 34.5 mph N/A   Mostly Cloudy
2:55 AM 44.6 °F 35.3 °F 42.8 °F 93% 29.69 in 10.0 mi NNW 26.5 mph 36.8 mph N/A   Overcast
3:15 AM 44.6 °F 35.9 °F 44.6 °F 100% 29.70 in 10.0 mi NNW 23.0 mph 32.2 mph N/A   Mostly Cloudy
3:35 AM 44.6 °F 36.1 °F 41.0 °F 87% 29.71 in 10.0 mi North 21.9 mph 29.9 mph N/A   Mostly Cloudy
3:55 AM 42.8 °F 34.5 °F 41.0 °F 93% 29.71 in 10.0 mi NNW 18.4 mph 25.3 mph N/A   Scattered Clouds
4:15 AM 41.0 °F 31.6 °F 39.2 °F 93% 29.72 in 10.0 mi NNW 20.7 mph 27.6 mph N/A   Partly Cloudy
4:35 AM 41.0 °F 32.8 °F 39.2 °F 93% 29.72 in 10.0 mi NNW 16.1 mph 21.9 mph N/A   Clear
4:55 AM 39.2 °F 31.2 °F 39.2 °F 100% 29.72 in 10.0 mi NNW 13.8 mph - N/A   Clear
5:15 AM 39.2 °F 29.8 °F 39.2 °F 100% 29.73 in 10.0 mi NNW 18.4 mph 21.9 mph N/A   Clear
5:35 AM 39.2 °F 30.2 °F 39.2 °F 100% 29.73 in 10.0 mi NW 17.3 mph - N/A   Clear
5:55 AM 39.2 °F 30.5 °F 39.2 °F 100% 29.73 in 10.0 mi NW 16.1 mph 20.7 mph N/A   Clear
6:15 AM 41.0 °F 32.8 °F 39.2 °F 93% 29.73 in 10.0 mi NW 16.1 mph - N/A   Clear
6:35 AM 41.0 °F 32.8 °F 39.2 °F 93% 29.73 in 10.0 mi NW 16.1 mph 21.9 mph N/A   Clear
6:55 AM 41.0 °F 31.9 °F 39.2 °F 93% 29.74 in 10.0 mi NW 19.6 mph 26.5 mph N/A   Clear
7:15 AM 41.0 °F 31.6 °F 39.2 °F 93% 29.75 in 10.0 mi NW 20.7 mph 29.9 mph N/A   Clear
7:35 AM 41.0 °F 31.4 °F 39.2 °F 93% 29.75 in 10.0 mi NW 21.9 mph 28.8 mph N/A   Clear
7:55 AM 41.0 °F 31.6 °F 39.2 °F 93% 29.75 in 10.0 mi NW 20.7 mph 28.8 mph N/A   Clear
8:15 AM 42.8 °F 33.8 °F 39.2 °F 87% 29.75 in 10.0 mi NW 21.9 mph - N/A   Clear
8:35 AM 44.6 °F 35.7 °F 37.4 °F 76% 29.76 in 10.0 mi NW 24.2 mph - N/A   Clear
8:55 AM 44.6 °F 36.1 °F 39.2 °F 81% 29.76 in 10.0 mi NW 21.9 mph - N/A   Clear
9:15 AM 44.6 °F 36.4 °F 39.2 °F 81% 29.75 in 10.0 mi NNW 20.7 mph - N/A   Clear
9:35 AM 46.4 °F 38.5 °F 39.2 °F 76% 29.75 in 10.0 mi NW 21.9 mph 27.6 mph N/A   Clear
9:55 AM 46.4 °F 38.7 °F 39.2 °F 76% 29.75 in 10.0 mi NW 20.7 mph - N/A   Clear
10:15 AM 48.2 °F - 39.2 °F 71% 29.74 in 10.0 mi NNW 20.7 mph 27.6 mph N/A   Clear
10:35 AM 48.2 °F - 39.2 °F 71% 29.74 in 10.0 mi NNW 24.2 mph 29.9 mph N/A   Clear
10:55 AM 48.2 °F - 37.4 °F 66% 29.75 in 10.0 mi NNW 27.6 mph 36.8 mph N/A   Clear
11:15 AM 50.0 °F - 37.4 °F 62% 29.74 in 10.0 mi NNW 25.3 mph 33.4 mph N/A   Clear
11:35 AM 50.0 °F - 37.4 °F 62% 29.74 in 10.0 mi NNW 25.3 mph 35.7 mph N/A   Clear
11:55 AM 50.0 °F - 35.6 °F 58% 29.75 in 10.0 mi NNW 29.9 mph 34.5 mph N/A   Clear
12:15 PM 51.8 °F - 37.4 °F 58% 29.75 in 10.0 mi NW 24.2 mph 35.7 mph N/A   Partly Cloudy
12:35 PM 51.8 °F - 35.6 °F 54% 29.75 in 10.0 mi NW 25.3 mph 38.0 mph N/A   Partly Cloudy
12:55 PM 51.8 °F - 33.8 °F 50% 29.75 in 10.0 mi NW 29.9 mph 38.0 mph N/A   Partly Cloudy
1:15 PM 53.6 °F - 32.0 °F 44% 29.75 in 10.0 mi NW 32.2 mph 39.1 mph N/A   Clear
1:35 PM 53.6 °F - 35.6 °F 51% 29.75 in 10.0 mi NW 29.9 mph 36.8 mph N/A   Clear
1:55 PM 53.6 °F - 35.6 °F 51% 29.75 in 10.0 mi NW 27.6 mph 38.0 mph N/A   Clear
2:15 PM 53.6 °F - 33.8 °F 47% 29.75 in 10.0 mi NW 27.6 mph 38.0 mph N/A   Partly Cloudy
2:35 PM 55.4 °F - 32.0 °F 41% 29.75 in 10.0 mi NNW 28.8 mph 36.8 mph N/A   Clear
2:55 PM 55.4 °F - 32.0 °F 41% 29.75 in 10.0 mi NNW 24.2 mph 36.8 mph N/A   Scattered Clouds
3:15 PM 55.4 °F - 33.8 °F 44% 29.75 in 10.0 mi NW 21.9 mph 36.8 mph N/A   Scattered Clouds
3:35 PM 55.4 °F - 32.0 °F 41% 29.75 in 10.0 mi NNW 27.6 mph 33.4 mph N/A   Scattered Clouds
3:55 PM 55.4 °F - 32.0 °F 41% 29.75 in 10.0 mi NNW 24.2 mph 32.2 mph N/A   Partly Cloudy
4:15 PM 55.4 °F - 32.0 °F 41% 29.75 in 10.0 mi NNW 20.7 mph 31.1 mph N/A   Partly Cloudy
4:35 PM 55.4 °F - 30.2 °F 38% 29.75 in 10.0 mi NNW 27.6 mph 34.5 mph N/A   Partly Cloudy
4:55 PM 55.4 °F - 32.0 °F 41% 29.75 in 10.0 mi NW 17.3 mph 28.8 mph N/A   Clear
5:15 PM 55.4 °F - 30.2 °F 38% 29.74 in 10.0 mi NNW 19.6 mph 25.3 mph N/A   Partly Cloudy
5:35 PM 55.4 °F - 28.4 °F 36% 29.74 in 10.0 mi NW 20.7 mph 28.8 mph N/A   Scattered Clouds
5:55 PM 53.6 °F - 30.2 °F 41% 29.75 in 10.0 mi NW 24.2 mph 33.4 mph N/A   Mostly Cloudy
6:15 PM 51.8 °F - 32.0 °F 47% 29.76 in 10.0 mi NNW 23.0 mph 31.1 mph N/A   Partly Cloudy
6:35 PM 50.0 °F - 33.8 °F 54% 29.77 in 10.0 mi NNW 23.0 mph 29.9 mph N/A   Mostly Cloudy
6:55 PM 48.2 °F - 37.4 °F 66% 29.79 in 10.0 mi NNW 28.8 mph 35.7 mph N/A   Mostly Cloudy
7:15 PM 44.6 °F 36.9 °F 41.0 °F 87% 29.79 in 8.0 mi NW 18.4 mph 27.6 mph 0.01 in Rain Light Rain
7:35 PM 44.6 °F 37.2 °F 39.2 °F 81% 29.77 in 10.0 mi West 17.3 mph 20.7 mph 0.01 in   Scattered Clouds
7:55 PM 46.4 °F 41.9 °F 39.2 °F 76% 29.77 in 10.0 mi WNW 9.2 mph - 0.01 in   Mostly Cloudy
8:15 PM 44.6 °F 39.7 °F 39.2 °F 81% 29.77 in 10.0 mi NW 9.2 mph - N/A   Scattered Clouds
8:35 PM 44.6 °F 39.2 °F 37.4 °F 76% 29.77 in 10.0 mi WNW 10.4 mph - N/A   Scattered Clouds
8:55 PM 42.8 °F 37.5 °F 39.2 °F 87% 29.77 in 10.0 mi WNW 9.2 mph - N/A   Scattered Clouds
9:15 PM 41.0 °F 37.1 °F 39.2 °F 93% 29.78 in 10.0 mi NW 5.8 mph - N/A   Mostly Cloudy
9:35 PM 41.0 °F 37.1 °F 39.2 °F 93% 29.78 in 10.0 mi West 5.8 mph - N/A   Mostly Cloudy
9:55 PM 42.8 °F 37.0 °F 39.2 °F 87% 29.79 in 10.0 mi WNW 10.4 mph - N/A   Partly Cloudy
10:15 PM 42.8 °F 35.1 °F 37.4 °F 81% 29.79 in 10.0 mi NW 16.1 mph 20.7 mph N/A   Partly Cloudy
10:35 PM 42.8 °F 34.8 °F 37.4 °F 81% 29.80 in 10.0 mi NNW 17.3 mph 21.9 mph N/A   Partly Cloudy
10:55 PM 41.0 °F 32.8 °F 37.4 °F 87% 29.81 in 10.0 mi NW 16.1 mph 19.6 mph N/A   Mostly Cloudy
11:15 PM 41.0 °F 32.5 °F 33.8 °F 76% 29.81 in 10.0 mi NNW 17.3 mph - N/A   Scattered Clouds
11:35 PM 39.2 °F 30.5 °F 32.0 °F 75% 29.81 in 10.0 mi NNW 16.1 mph 20.7 mph N/A   Clear
11:55 PM 39.2 °F 31.2 °F 32.0 °F 75% 29.81 in 10.0 mi NNW 13.8 mph 20.7 mph N/A   Scattered Clouds